New Cumberland, PA

8:42 AM EDT on August 25, 2016 (GMT -0400)
Capital City

Weather History for KCXY - June, 2013

Change the Weather History Date:

Wednesday, June 19, 2013

  Actual Average Record
Temperature  
Mean Temperature 68 °F -  
Max Temperature 79 °F 80 °F 98 °F (1994)
Min Temperature 57 °F 61 °F 52 °F (1954)
Cooling Degree Days 4    
Growing Degree Days 18 (Base 50)    
Moisture  
Dew Point 52 °F    
Average Humidity 59    
Maximum Humidity 94    
Minimum Humidity 30    
Precipitation  
Precipitation 0.00 in - - ()
Sea Level Pressure  
Sea Level Pressure 30.04 in    
Wind  
Wind Speed 4 mph (NW)    
Max Wind Speed 7 mph    
Max Gust Speed -    
Visibility 10 miles    
Events Rain    
Averages and records for this station are not official NWS values.
T = Trace of Precipitation, MM = Missing Value Source: NWS Daily Summary

Daily Weather History Graph

Daily Weather History Graph

Search for Another Location

Airport or City:

Trip Planner

Search our weather history database for the weather conditions in past years. The results will help you decide how hot, cold, wet, or windy it might be!

Date:

Astronomy

Jun. 19, 2013 Rise Set
Actual Time 5:37 AM EDT 8:40 PM EDT
Civil Twilight 5:04 AM EDT 9:13 PM EDT
Nautical Twilight 4:22 AM EDT 9:55 PM EDT
Astronomical Twilight 3:33 AM EDT 10:44 PM EDT
Moon 4:30 PM EDT (6/19) 2:21 AM EDT (6/19)
Length of Visible Light 16h 08m
Length of Day
15h 02m
Waxing Gibbous, 80% of the Moon is Illuminated
Jun 19
Waxing Gibbous
Jun 23
Full
Jun 30
Last Quarter
Jul 8
New
Jul 15
First Quarter

Hourly Weather History & Observations

Time (EDT) Temp. Dew Point Humidity Pressure Visibility Wind Dir Wind Speed Gust Speed Precip Events Conditions
12:56 AM 66.0 °F 63.0 °F 90% 29.92 in 10.0 mi WSW 3.5 mph - N/A   Overcast
1:25 AM 64.4 °F 62.6 °F 94% 29.92 in 10.0 mi WNW 3.5 mph - N/A   Overcast
1:56 AM 66.0 °F 60.1 °F 81% 29.94 in 10.0 mi NW 3.5 mph - N/A   Overcast
2:56 AM 64.9 °F 57.9 °F 78% 29.94 in 10.0 mi Calm Calm - 0.00 in Rain Light Rain
3:56 AM 64.9 °F 55.9 °F 73% 29.94 in 10.0 mi NNW 5.8 mph - 0.00 in   Overcast
4:56 AM 64.9 °F 54.0 °F 68% 29.95 in 10.0 mi NW 3.5 mph - N/A   Overcast
5:56 AM 64.0 °F 52.0 °F 65% 29.97 in 10.0 mi NNW 3.5 mph - N/A   Overcast
6:56 AM 64.0 °F 51.1 °F 63% 29.99 in 10.0 mi NNW 4.6 mph - N/A   Mostly Cloudy
7:56 AM 63.0 °F 52.0 °F 67% 30.02 in 10.0 mi NW 4.6 mph - N/A   Mostly Cloudy
8:56 AM 66.9 °F 52.0 °F 59% 30.05 in 10.0 mi NNW 6.9 mph - N/A   Mostly Cloudy
9:56 AM 70.0 °F 54.0 °F 57% 30.06 in 10.0 mi NNW 4.6 mph - N/A   Mostly Cloudy
10:56 AM 72.0 °F 51.1 °F 48% 30.08 in 10.0 mi ENE 5.8 mph - N/A   Partly Cloudy
11:56 AM 73.0 °F 50.0 °F 44% 30.09 in 10.0 mi East 5.8 mph - N/A   Partly Cloudy
12:56 PM 73.9 °F 51.1 °F 45% 30.08 in 10.0 mi ENE 3.5 mph - N/A   Mostly Cloudy
1:56 PM 75.0 °F 52.0 °F 44% 30.07 in 10.0 mi NW 3.5 mph - N/A   Mostly Cloudy
2:56 PM 75.0 °F 48.9 °F 40% 30.08 in 10.0 mi Calm Calm - N/A   Clear
3:56 PM 75.0 °F 48.0 °F 38% 30.07 in 10.0 mi Calm Calm - N/A   Scattered Clouds
4:56 PM 78.1 °F 46.0 °F 32% 30.07 in 10.0 mi NNW 6.9 mph - N/A   Clear
5:56 PM 78.1 °F 45.0 °F 31% 30.07 in 10.0 mi North 6.9 mph - N/A   Clear
6:56 PM 77.0 °F 43.0 °F 30% 30.08 in 10.0 mi NW 5.8 mph - N/A   Clear
7:56 PM 73.9 °F 45.0 °F 35% 30.09 in 10.0 mi WNW 3.5 mph - N/A   Clear
8:56 PM 66.9 °F 52.0 °F 59% 30.11 in 10.0 mi Calm Calm - N/A   Clear
9:56 PM 63.0 °F 52.0 °F 67% 30.13 in 10.0 mi Calm Calm - N/A   Clear
10:56 PM 59.0 °F 52.0 °F 78% 30.15 in 10.0 mi WSW 3.5 mph - N/A   Clear
11:56 PM 57.9 °F 51.1 °F 78% 30.16 in 10.0 mi SSW 3.5 mph - N/A   Clear